Hourly Weather Rubizhne

Today, 14 April, Wednesday

Time Temperature Precipitation Wind Pressure Humidity
00:00 +10°C° 0 mm 1 mps 755 mmHg 83%
01:00 +10°C° 0 mm 1 mps 754 mmHg 83%
02:00 +9°C° 0 mm 0 mps 754 mmHg 82%
03:00 +10°C° 0 mm 1 mps 754 mmHg 82%
04:00 +10°C° 0 mm 1 mps 754 mmHg 81%
05:00 +10°C° 0 mm 1 mps 753 mmHg 81%
06:00 +11°C° 0 mm 1 mps 753 mmHg 78%
07:00 +12°C° 0 mm 1 mps 753 mmHg 75%
08:00 +13°C° 0 mm 1 mps 753 mmHg 72%
09:00 +14°C° 0 mm 1 mps 753 mmHg 68%
10:00 +15°C° 0 mm 1 mps 752 mmHg 64%
11:00 +15°C° 0 mm 0 mps 752 mmHg 60%
12:00 +16°C° 0.2 mm 0 mps 751 mmHg 58%
13:00 +18°C° 0.2 mm 1 mps 751 mmHg 57%
14:00 +18°C° 0.2 mm 1 mps 751 mmHg 55%
15:00 +18°C° 0.4 mm 1 mps 751 mmHg 57%
16:00 +18°C° 0.4 mm 1 mps 750 mmHg 59%
17:00 +16°C° 0.4 mm 1 mps 750 mmHg 62%
18:00 +15°C° 0.2 mm 1 mps 750 mmHg 67%
19:00 +14°C° 0.2 mm 1 mps 750 mmHg 72%
20:00 +13°C° 0.2 mm 2 mps 750 mmHg 76%
21:00 +13°C° 0.1 mm 1 mps 750 mmHg 78%
22:00 +12°C° 0.1 mm 1 mps 750 mmHg 80%
23:00 +12°C° 0.1 mm 1 mps 749 mmHg 82%

Tomorrow, 15 April, Thursday

Time Temperature Precipitation Wind Pressure Humidity
00:00 +12°C° 0.1 mm 1 mps 749 mmHg 83%
01:00 +12°C° 0.1 mm 2 mps 749 mmHg 84%
02:00 +10°C° 0.1 mm 2 mps 749 mmHg 85%
03:00 +10°C° 0 mm 2 mps 749 mmHg 86%
04:00 +9°C° 0 mm 2 mps 749 mmHg 87%
05:00 +9°C° 0 mm 2 mps 749 mmHg 88%
06:00 +10°C° 0 mm 3 mps 749 mmHg 82%
07:00 +11°C° 0 mm 3 mps 750 mmHg 75%
08:00 +12°C° 0 mm 4 mps 750 mmHg 68%
09:00 +13°C° 0 mm 4 mps 750 mmHg 62%
10:00 +14°C° 0 mm 4 mps 749 mmHg 56%
11:00 +15°C° 0 mm 4 mps 749 mmHg 49%
12:00 +15°C° 0 mm 4 mps 749 mmHg 51%
13:00 +15°C° 0 mm 5 mps 749 mmHg 53%
14:00 +15°C° 0 mm 5 mps 749 mmHg 55%
15:00 +15°C° 0.1 mm 5 mps 749 mmHg 57%
16:00 +14°C° 0.1 mm 4 mps 749 mmHg 59%
17:00 +14°C° 0.1 mm 4 mps 749 mmHg 61%
18:00 +13°C° 0.4 mm 3 mps 749 mmHg 68%
19:00 +13°C° 0.4 mm 2 mps 749 mmHg 75%
20:00 +10°C° 0.4 mm 2 mps 749 mmHg 82%
21:00 +10°C° 0 mm 2 mps 749 mmHg 84%
22:00 +9°C° 0 mm 2 mps 749 mmHg 85%
23:00 +9°C° 0 mm 2 mps 749 mmHg 87%

Day after tomorrow, 16 April, Friday

Time Temperature Precipitation Wind Pressure Humidity
00:00 +8°C° 0 mm 2 mps 749 mmHg 89%
01:00 +8°C° 0 mm 2 mps 749 mmHg 90%
02:00 +8°C° 0 mm 2 mps 749 mmHg 92%
03:00 +7°C° 0 mm 2 mps 749 mmHg 92%
04:00 +7°C° 0 mm 3 mps 750 mmHg 93%
05:00 +7°C° 0 mm 3 mps 750 mmHg 94%
06:00 +7°C° 0 mm 4 mps 750 mmHg 86%
07:00 +7°C° 0 mm 4 mps 750 mmHg 78%
08:00 +8°C° 0 mm 5 mps 751 mmHg 70%
09:00 +9°C° 0 mm 5 mps 751 mmHg 66%
10:00 +10°C° 0 mm 5 mps 751 mmHg 62%
11:00 +10°C° 0 mm 6 mps 751 mmHg 58%
12:00 +10°C° 0 mm 5 mps 751 mmHg 58%
13:00 +10°C° 0 mm 5 mps 752 mmHg 58%
14:00 +12°C° 0 mm 4 mps 752 mmHg 58%
15:00 +12°C° 0 mm 3 mps 752 mmHg 60%
16:00 +11°C° 0 mm 3 mps 752 mmHg 61%
17:00 +12°C° 0 mm 2 mps 752 mmHg 63%
18:00 +10°C° 0 mm 2 mps 752 mmHg 68%
19:00 +9°C° 0 mm 2 mps 752 mmHg 73%
20:00 +9°C° 0 mm 2 mps 752 mmHg 79%
21:00 +8°C° 0 mm 2 mps 752 mmHg 80%
22:00 +9°C° 0 mm 1 mps 753 mmHg 81%
23:00 +8°C° 0 mm 1 mps 753 mmHg 82%

17 April, Saturday

Time Temperature Precipitation Wind Pressure Humidity
00:00 +8°C° 0 mm 1 mps 753 mmHg 83%
01:00 +8°C° 0 mm 1 mps 753 mmHg 83%
02:00 +8°C° 0 mm 1 mps 753 mmHg 83%
03:00 +8°C° 0 mm 1 mps 753 mmHg 84%
04:00 +8°C° 0 mm 1 mps 753 mmHg 85%
05:00 +8°C° 0 mm 1 mps 753 mmHg 85%
06:00 +8°C° 0.3 mm 1 mps 753 mmHg 84%
07:00 +8°C° 0.3 mm 2 mps 753 mmHg 82%
08:00 +8°C° 0.3 mm 2 mps 753 mmHg 81%
09:00 +8°C° 0.2 mm 3 mps 753 mmHg 78%
10:00 +9°C° 0.2 mm 3 mps 753 mmHg 75%
11:00 +9°C° 0.2 mm 3 mps 753 mmHg 73%
12:00 +9°C° 0.1 mm 3 mps 753 mmHg 71%
13:00 +10°C° 0.1 mm 2 mps 753 mmHg 70%
14:00 +10°C° 0.1 mm 2 mps 753 mmHg 69%
15:00 +10°C° 0.3 mm 2 mps 753 mmHg 72%
16:00 +9°C° 0.3 mm 2 mps 753 mmHg 75%
17:00 +9°C° 0.3 mm 2 mps 753 mmHg 78%
18:00 +8°C° 1 mm 2 mps 753 mmHg 81%
19:00 +8°C° 1 mm 3 mps 754 mmHg 83%
20:00 +8°C° 1 mm 3 mps 754 mmHg 86%
21:00 +7°C° 2 mm 3 mps 754 mmHg 87%
22:00 +7°C° 2 mm 3 mps 754 mmHg 89%
23:00 +7°C° 2 mm 3 mps 754 mmHg 90%

18 April, Sunday

Time Temperature Precipitation Wind Pressure Humidity
00:00 +5°C° 1.5 mm 3 mps 754 mmHg 91%
01:00 +5°C° 1.5 mm 3 mps 754 mmHg 91%
02:00 +5°C° 1.5 mm 3 mps 755 mmHg 92%
03:00 +6°C° 0.8 mm 2 mps 755 mmHg 92%
04:00 +6°C° 0.8 mm 2 mps 755 mmHg 91%
05:00 +7°C° 0.8 mm 1 mps 755 mmHg 91%
06:00 +8°C° 0.2 mm 1 mps 755 mmHg 88%
07:00 +8°C° 0.2 mm 1 mps 755 mmHg 84%
08:00 +9°C° 0.2 mm 1 mps 755 mmHg 80%
09:00 +9°C° 0.1 mm 2 mps 755 mmHg 75%
10:00 +10°C° 0.1 mm 2 mps 756 mmHg 69%
11:00 +12°C° 0.1 mm 2 mps 756 mmHg 63%
12:00 +13°C° 0.1 mm 2 mps 756 mmHg 59%
13:00 +13°C° 0.1 mm 2 mps 755 mmHg 55%
14:00 +14°C° 0.1 mm 2 mps 755 mmHg 52%
15:00 +14°C° 0 mm 2 mps 755 mmHg 53%
16:00 +14°C° 0 mm 2 mps 755 mmHg 55%
17:00 +14°C° 0 mm 2 mps 755 mmHg 56%
18:00 +12°C° 0 mm 3 mps 756 mmHg 64%
19:00 +11°C° 0 mm 3 mps 756 mmHg 71%
20:00 +9°C° 0 mm 3 mps 756 mmHg 79%
21:00 +8°C° 0 mm 4 mps 756 mmHg 83%
22:00 +7°C° 0 mm 4 mps 757 mmHg 87%
23:00 +7°C° 0 mm 4 mps 757 mmHg 91%

19 April, Monday

Time Temperature Precipitation Wind Pressure Humidity
00:00 +7°C° 0 mm 4 mps 757 mmHg 91%
01:00 +7°C° 0 mm 3 mps 757 mmHg 92%
02:00 +7°C° 0 mm 3 mps 757 mmHg 93%
03:00 +7°C° 0 mm 3 mps 757 mmHg 92%
04:00 +5°C° 0 mm 3 mps 758 mmHg 92%
05:00 +5°C° 0 mm 3 mps 758 mmHg 92%
06:00 +6°C° 0 mm 4 mps 758 mmHg 85%
07:00 +8°C° 0 mm 5 mps 758 mmHg 79%
08:00 +9°C° 0 mm 5 mps 758 mmHg 73%
09:00 +10°C° 0 mm 6 mps 759 mmHg 72%
10:00 +10°C° 0 mm 6 mps 759 mmHg 70%
11:00 +10°C° 0 mm 6 mps 759 mmHg 69%
12:00 +11°C° 0 mm 6 mps 759 mmHg 67%
13:00 +11°C° 0 mm 6 mps 759 mmHg 64%
14:00 +13°C° 0 mm 6 mps 758 mmHg 61%
15:00 +11°C° 0 mm 6 mps 759 mmHg 63%
16:00 +11°C° 0 mm 6 mps 759 mmHg 64%
17:00 +11°C° 0 mm 6 mps 759 mmHg 66%
18:00 +10°C° 0 mm 6 mps 759 mmHg 68%
19:00 +9°C° 0 mm 5 mps 759 mmHg 70%
20:00 +9°C° 0 mm 5 mps 759 mmHg 72%
21:00 +8°C° 0 mm 4 mps 759 mmHg 75%
22:00 +7°C° 0 mm 4 mps 759 mmHg 77%
23:00 +6°C° 0 mm 4 mps 759 mmHg 80%
Show more